Flag for Romania Weather past 2 weeks in Cluj-Napoca, Romania

Now
63 °F

Clear.


Feels Like: 63 °F
Forecast: 46 / 70 °F
Wind: No wind

Location: Cluj Airport-Napoca

Current Time: Sep 16, 2014 at 9:34:33 PM

Latest Report: Sep 16, 2014 at 9:00 PM


Visibility: 10 mi

Pressure: 30.09 "Hg

Humidity: 68%

Dew point: 52 °F

Location of Cluj-NapocaLocation

Historic Weather in Cluj-Napoca — Graph

°F

Cluj-Napoca temperature yesterday

Maximum temperature yesterday: 79 °F (at 4:30 PM)
Minimum temperature yesterday: 54 °F (at 7:30 AM)
Average temperature yesterday: 67 °F

Past Weeks' High & Low Weather Summary

 TemperatureHumidityPressure
High82 °F (Sep 2, 4:30 PM)100% (Sep 2, 5:30 AM)30.12 "Hg (Sep 2, 5:30 AM)
Low52 °F (Sep 2, 5:30 AM)28% (Sep 12, 3:00 PM)29.83 "Hg (Sep 1, 8:00 PM)
Average67 °F66%30.00 "Hg
* Reported Sep 1 8:00 PM — Sep 16 8:30 PM, Cluj-Napoca, Weather by CustomWeather, © 2014

Note: Actual official high and low records may vary slightly from our data, if they occured in-between our weather recording intervals... More about our weather records

Advertising

Cluj-Napoca weather history for previous 24 hours

 ConditionsComfort  
Time TempWeatherWind HumidityBarometerVisibility
8:30 PM
Sep 16
63 °FSunny.No wind73%30.07 "Hg10 mi
8:00 PM64 °FSunny.No wind60%30.07 "Hg10 mi
7:30 PM68 °FSunny.No wind49%30.07 "Hg10 mi
7:00 PM72 °FSunny.No wind44%30.07 "Hg10 mi
6:30 PM73 °FSunny.No wind38%30.07 "Hg10 mi
6:00 PM75 °FSunny.No wind39%30.07 "Hg10 mi
5:30 PM73 °FPassing clouds.5 mph41%30.07 "HgN/A
5:00 PM73 °FPassing clouds.No wind38%30.07 "HgN/A
4:30 PM75 °FSunny.2 mph39%30.07 "Hg10 mi
4:00 PM75 °FSunny.No wind39%30.07 "Hg10 mi
3:30 PM73 °FSunny.2 mph41%30.09 "Hg10 mi
3:00 PM72 °FSunny.No wind44%30.09 "Hg10 mi
2:30 PM70 °FSunny.No wind46%30.09 "Hg10 mi
2:00 PM70 °FPassing clouds.2 mph46%30.09 "HgN/A
1:30 PM68 °FPassing clouds.2 mph49%30.12 "HgN/A
1:00 PM66 °FPassing clouds.2 mph56%30.12 "HgN/A
12:30 PM66 °FSunny.5 mph56%30.12 "Hg10 mi
12:00 PM66 °FSunny.2 mph56%30.12 "Hg10 mi
11:30 AM66 °FSunny.5 mph56%30.12 "Hg10 mi
11:00 AM64 °FSunny.No wind60%30.12 "Hg10 mi
10:30 AM64 °FSunny.No wind64%30.12 "Hg10 mi
10:00 AM64 °FSunny.No wind60%30.12 "Hg10 mi
9:00 AM59 °FSunny.No wind77%30.12 "Hg10 mi
8:30 AM57 °FSunny.2 mph82%30.12 "Hg10 mi
8:00 AM57 °FClear.2 mph82%30.12 "Hg10 mi
7:30 AM57 °FClear.2 mph82%30.09 "Hg10 mi
7:00 AM55 °FClear.2 mph88%30.09 "Hg10 mi
6:30 AM55 °FClear.No wind88%30.09 "Hg10 mi
6:00 AM57 °FClear.2 mph82%30.09 "Hg10 mi
5:30 AM57 °FClear.2 mph82%30.09 "Hg10 mi
5:00 AM57 °FClear.2 mph82%30.09 "Hg10 mi
4:00 AM59 °FClear.No wind77%30.09 "Hg10 mi
3:00 AM59 °FClear.No wind77%30.07 "Hg10 mi
2:00 AM59 °FClear.No wind72%30.07 "Hg10 mi
1:00 AM63 °FClear.No wind64%30.07 "Hg10 mi
12:00 AM63 °FClear.5 mph59%30.07 "Hg10 mi
11:30 PM
Sep 15
63 °FClear.5 mph64%30.07 "Hg10 mi
11:00 PM63 °FClear.2 mph64%30.07 "Hg10 mi
10:30 PM64 °FPassing clouds.5 mph56%30.07 "HgN/A
10:00 PM64 °FClear.No wind56%30.07 "Hg10 mi
9:30 PM64 °FClear.7 mph56%30.04 "Hg10 mi
9:00 PM66 °FClear.7 mph56%30.04 "Hg10 mi
Weather by CustomWeather, © 2014

See weather overviewHow to use our weather pages